Location: *
(2.5500°S, 65.9667°W)
Time: 18:18:15
(UTC+00:00)

SRMSAT - Pass Details

Date: 06 July 2022
Orbit: 848 x 865 km, 20.0° (Epoch: 18 August)

Event Time Altitude Azimuth Distance (km) Brightness Sun altitude
Exits shadow 07:38:42 13° 115° (ESE) 2,238 ? -39.8°
Drops below altitude 10° 07:39:19 10° 115° (ESE) 2,461 ? -39.6°
Sets 07:41:53 0° 113° (ESE) 3,399 ? -39.1°
